Terminal Aerodrome Forecast
Issued by NWS

Home | Current Version | Previous Version | Text Only | Print | Product List | Glossary On
Versions: 1 2 3 4 5 6 7 8 9 10 11 12 13 14 15 16 17 18 19 20 21 22 23 24 25 26 27 28 29 30 31 32 33 34 35 36 37 38 39 40 41 42 43 44 45 46 47 48 49 50
000
FTUS44 KHGX 292330
TAFLBX
TAF
KLBX 292330Z 3000/3024 19006KT P6SM SCT250
     FM300300 VRB03KT P6SM SCT020 SCT250
      TEMPO 3010/3014 4SM BR BKN015
     FM301600 16005KT P6SM VCTS BKN035CB
     FM301900 16007KT P6SM VCTS BKN040CB BKN250
      TEMPO 3019/3023 TSRA=

USA.gov is the U.S. government's official web portal to all federal, state and local government web resources and services.